Index of /20260427/WXO-DD/model_rdps/10km/06/016
Name Last modified Size Description
Parent Directory -
20260427T06Z_MSC_RDPS_AbsoluteVorticity_IsbL-0250_RLatLon0.09_PT016H.grib2 2026-04-27 08:44 616K
20260427T06Z_MSC_RDPS_AbsoluteVorticity_IsbL-0500_RLatLon0.09_PT016H.grib2 2026-04-27 08:44 560K
20260427T06Z_MSC_RDPS_AbsoluteVorticity_IsbL-0700_RLatLon0.09_PT016H.grib2 2026-04-27 08:44 623K
20260427T06Z_MSC_RDPS_AbsoluteVorticity_IsbL-0850_RLatLon0.09_PT016H.grib2 2026-04-27 08:44 780K
20260427T06Z_MSC_RDPS_AirTemp_AGL-120m_RLatLon0.09_PT016H.grib2 2026-04-27 08:44 395K
20260427T06Z_MSC_RDPS_AirTemp_AGL-2m_RLatLon0.09_PT016H.grib2 2026-04-27 08:44 631K
20260427T06Z_MSC_RDPS_AirTemp_AGL-40m_RLatLon0.09_PT016H.grib2 2026-04-27 08:44 403K
20260427T06Z_MSC_RDPS_AirTemp_AGL-80m_RLatLon0.09_PT016H.grib2 2026-04-27 08:44 398K
20260427T06Z_MSC_RDPS_AirTemp_IsbL-0001_RLatLon0.09_PT016H.grib2 2026-04-27 08:44 272K
20260427T06Z_MSC_RDPS_AirTemp_IsbL-0005_RLatLon0.09_PT016H.grib2 2026-04-27 08:44 332K
20260427T06Z_MSC_RDPS_AirTemp_IsbL-0010_RLatLon0.09_PT016H.grib2 2026-04-27 08:44 305K
20260427T06Z_MSC_RDPS_AirTemp_IsbL-0020_RLatLon0.09_PT016H.grib2 2026-04-27 08:44 322K
20260427T06Z_MSC_RDPS_AirTemp_IsbL-0030_RLatLon0.09_PT016H.grib2 2026-04-27 08:44 337K
20260427T06Z_MSC_RDPS_AirTemp_IsbL-0050_RLatLon0.09_PT016H.grib2 2026-04-27 08:44 317K
20260427T06Z_MSC_RDPS_AirTemp_IsbL-0100_RLatLon0.09_PT016H.grib2 2026-04-27 08:44 426K
20260427T06Z_MSC_RDPS_AirTemp_IsbL-0150_RLatLon0.09_PT016H.grib2 2026-04-27 08:44 426K
20260427T06Z_MSC_RDPS_AirTemp_IsbL-0175_RLatLon0.09_PT016H.grib2 2026-04-27 08:44 419K
20260427T06Z_MSC_RDPS_AirTemp_IsbL-0200_RLatLon0.09_PT016H.grib2 2026-04-27 08:44 424K
20260427T06Z_MSC_RDPS_AirTemp_IsbL-0225_RLatLon0.09_PT016H.grib2 2026-04-27 08:44 423K
20260427T06Z_MSC_RDPS_AirTemp_IsbL-0250_RLatLon0.09_PT016H.grib2 2026-04-27 08:44 430K
20260427T06Z_MSC_RDPS_AirTemp_IsbL-0275_RLatLon0.09_PT016H.grib2 2026-04-27 08:44 410K
20260427T06Z_MSC_RDPS_AirTemp_IsbL-0300_RLatLon0.09_PT016H.grib2 2026-04-27 08:44 415K
20260427T06Z_MSC_RDPS_AirTemp_IsbL-0350_RLatLon0.09_PT016H.grib2 2026-04-27 08:44 425K
20260427T06Z_MSC_RDPS_AirTemp_IsbL-0400_RLatLon0.09_PT016H.grib2 2026-04-27 08:44 426K
20260427T06Z_MSC_RDPS_AirTemp_IsbL-0450_RLatLon0.09_PT016H.grib2 2026-04-27 08:44 433K
20260427T06Z_MSC_RDPS_AirTemp_IsbL-0500_RLatLon0.09_PT016H.grib2 2026-04-27 08:44 411K
20260427T06Z_MSC_RDPS_AirTemp_IsbL-0550_RLatLon0.09_PT016H.grib2 2026-04-27 08:44 430K
20260427T06Z_MSC_RDPS_AirTemp_IsbL-0600_RLatLon0.09_PT016H.grib2 2026-04-27 08:44 448K
20260427T06Z_MSC_RDPS_AirTemp_IsbL-0650_RLatLon0.09_PT016H.grib2 2026-04-27 08:44 460K
20260427T06Z_MSC_RDPS_AirTemp_IsbL-0700_RLatLon0.09_PT016H.grib2 2026-04-27 08:44 486K
20260427T06Z_MSC_RDPS_AirTemp_IsbL-0750_RLatLon0.09_PT016H.grib2 2026-04-27 08:44 416K
20260427T06Z_MSC_RDPS_AirTemp_IsbL-0800_RLatLon0.09_PT016H.grib2 2026-04-27 08:44 461K
20260427T06Z_MSC_RDPS_AirTemp_IsbL-0850_RLatLon0.09_PT016H.grib2 2026-04-27 08:44 505K
20260427T06Z_MSC_RDPS_AirTemp_IsbL-0875_RLatLon0.09_PT016H.grib2 2026-04-27 08:44 519K
20260427T06Z_MSC_RDPS_AirTemp_IsbL-0900_RLatLon0.09_PT016H.grib2 2026-04-27 08:44 535K
20260427T06Z_MSC_RDPS_AirTemp_IsbL-0925_RLatLon0.09_PT016H.grib2 2026-04-27 08:44 535K
20260427T06Z_MSC_RDPS_AirTemp_IsbL-0950_RLatLon0.09_PT016H.grib2 2026-04-27 08:44 536K
20260427T06Z_MSC_RDPS_AirTemp_IsbL-0970_RLatLon0.09_PT016H.grib2 2026-04-27 08:44 534K
20260427T06Z_MSC_RDPS_AirTemp_IsbL-0985_RLatLon0.09_PT016H.grib2 2026-04-27 08:44 528K
20260427T06Z_MSC_RDPS_AirTemp_IsbL-1000_RLatLon0.09_PT016H.grib2 2026-04-27 08:44 514K
20260427T06Z_MSC_RDPS_AirTemp_IsbL-1015_RLatLon0.09_PT016H.grib2 2026-04-27 08:44 510K
20260427T06Z_MSC_RDPS_Albedo_Sfc_RLatLon0.09_PT016H.grib2 2026-04-27 08:44 160K
20260427T06Z_MSC_RDPS_CAPE_Sfc_RLatLon0.09_PT016H.grib2 2026-04-27 08:44 1.7M
20260427T06Z_MSC_RDPS_CIN_Sfc_RLatLon0.09_PT016H.grib2 2026-04-27 08:44 1.2M
20260427T06Z_MSC_RDPS_CloudWater_EAtm_RLatLon0.09_PT016H.grib2 2026-04-27 08:44 220K
20260427T06Z_MSC_RDPS_ConvectivePrecip-Accum_Sfc_RLatLon0.09_PT016H.grib2 2026-04-27 08:44 757K
20260427T06Z_MSC_RDPS_DewPointDepression_AGL-2m_RLatLon0.09_PT016H.grib2 2026-04-27 08:44 421K
20260427T06Z_MSC_RDPS_DewPointDepression_IsbL-0001_RLatLon0.09_PT016H.grib2 2026-04-27 08:44 193
20260427T06Z_MSC_RDPS_DewPointDepression_IsbL-0005_RLatLon0.09_PT016H.grib2 2026-04-27 08:44 193
20260427T06Z_MSC_RDPS_DewPointDepression_IsbL-0010_RLatLon0.09_PT016H.grib2 2026-04-27 08:44 193
20260427T06Z_MSC_RDPS_DewPointDepression_IsbL-0020_RLatLon0.09_PT016H.grib2 2026-04-27 08:44 193
20260427T06Z_MSC_RDPS_DewPointDepression_IsbL-0030_RLatLon0.09_PT016H.grib2 2026-04-27 08:44 193
20260427T06Z_MSC_RDPS_DewPointDepression_IsbL-0050_RLatLon0.09_PT016H.grib2 2026-04-27 08:44 88K
20260427T06Z_MSC_RDPS_DewPointDepression_IsbL-0100_RLatLon0.09_PT016H.grib2 2026-04-27 08:44 128K
20260427T06Z_MSC_RDPS_DewPointDepression_IsbL-0150_RLatLon0.09_PT016H.grib2 2026-04-27 08:44 152K
20260427T06Z_MSC_RDPS_DewPointDepression_IsbL-0175_RLatLon0.09_PT016H.grib2 2026-04-27 08:44 190K
20260427T06Z_MSC_RDPS_DewPointDepression_IsbL-0200_RLatLon0.09_PT016H.grib2 2026-04-27 08:44 230K
20260427T06Z_MSC_RDPS_DewPointDepression_IsbL-0225_RLatLon0.09_PT016H.grib2 2026-04-27 08:44 270K
20260427T06Z_MSC_RDPS_DewPointDepression_IsbL-0250_RLatLon0.09_PT016H.grib2 2026-04-27 08:44 304K
20260427T06Z_MSC_RDPS_DewPointDepression_IsbL-0275_RLatLon0.09_PT016H.grib2 2026-04-27 08:44 315K
20260427T06Z_MSC_RDPS_DewPointDepression_IsbL-0300_RLatLon0.09_PT016H.grib2 2026-04-27 08:44 331K
20260427T06Z_MSC_RDPS_DewPointDepression_IsbL-0350_RLatLon0.09_PT016H.grib2 2026-04-27 08:44 335K
20260427T06Z_MSC_RDPS_DewPointDepression_IsbL-0400_RLatLon0.09_PT016H.grib2 2026-04-27 08:44 350K
20260427T06Z_MSC_RDPS_DewPointDepression_IsbL-0450_RLatLon0.09_PT016H.grib2 2026-04-27 08:44 361K
20260427T06Z_MSC_RDPS_DewPointDepression_IsbL-0500_RLatLon0.09_PT016H.grib2 2026-04-27 08:44 366K
20260427T06Z_MSC_RDPS_DewPointDepression_IsbL-0550_RLatLon0.09_PT016H.grib2 2026-04-27 08:44 377K
20260427T06Z_MSC_RDPS_DewPointDepression_IsbL-0600_RLatLon0.09_PT016H.grib2 2026-04-27 08:44 390K
20260427T06Z_MSC_RDPS_DewPointDepression_IsbL-0650_RLatLon0.09_PT016H.grib2 2026-04-27 08:44 397K
20260427T06Z_MSC_RDPS_DewPointDepression_IsbL-0700_RLatLon0.09_PT016H.grib2 2026-04-27 08:44 408K
20260427T06Z_MSC_RDPS_DewPointDepression_IsbL-0750_RLatLon0.09_PT016H.grib2 2026-04-27 08:44 432K
20260427T06Z_MSC_RDPS_DewPointDepression_IsbL-0800_RLatLon0.09_PT016H.grib2 2026-04-27 08:44 462K
20260427T06Z_MSC_RDPS_DewPointDepression_IsbL-0850_RLatLon0.09_PT016H.grib2 2026-04-27 08:44 483K
20260427T06Z_MSC_RDPS_DewPointDepression_IsbL-0875_RLatLon0.09_PT016H.grib2 2026-04-27 08:44 481K
20260427T06Z_MSC_RDPS_DewPointDepression_IsbL-0900_RLatLon0.09_PT016H.grib2 2026-04-27 08:44 471K
20260427T06Z_MSC_RDPS_DewPointDepression_IsbL-0925_RLatLon0.09_PT016H.grib2 2026-04-27 08:44 460K
20260427T06Z_MSC_RDPS_DewPointDepression_IsbL-0950_RLatLon0.09_PT016H.grib2 2026-04-27 08:44 449K
20260427T06Z_MSC_RDPS_DewPointDepression_IsbL-0970_RLatLon0.09_PT016H.grib2 2026-04-27 08:44 440K
20260427T06Z_MSC_RDPS_DewPointDepression_IsbL-0985_RLatLon0.09_PT016H.grib2 2026-04-27 08:44 435K
20260427T06Z_MSC_RDPS_DewPointDepression_IsbL-1000_RLatLon0.09_PT016H.grib2 2026-04-27 08:44 432K
20260427T06Z_MSC_RDPS_DewPointDepression_IsbL-1015_RLatLon0.09_PT016H.grib2 2026-04-27 08:44 424K
20260427T06Z_MSC_RDPS_DewPoint_AGL-2m_RLatLon0.09_PT016H.grib2 2026-04-27 08:44 314K
20260427T06Z_MSC_RDPS_DownwardLongwaveRadiationFlux-Accum_Sfc_RLatLon0.09_PT016H.grib2 2026-04-27 08:44 526K
20260427T06Z_MSC_RDPS_DownwardShortwaveRadiationFlux-Accum_NTAtm_RLatLon0.09_PT016H.grib2 2026-04-27 08:44 120K
20260427T06Z_MSC_RDPS_DownwardShortwaveRadiationFlux-Accum_Sfc_RLatLon0.09_PT016H.grib2 2026-04-27 08:44 593K
20260427T06Z_MSC_RDPS_FreezingRain-Accum1h_Sfc_RLatLon0.09_PT016H.grib2 2026-04-27 08:44 8.4K
20260427T06Z_MSC_RDPS_FreezingRain-Accum_Sfc_RLatLon0.09_PT016H.grib2 2026-04-27 08:44 79K
20260427T06Z_MSC_RDPS_GeopotentialHeight_IsbL-0001_RLatLon0.09_PT016H.grib2 2026-04-27 08:44 276K
20260427T06Z_MSC_RDPS_GeopotentialHeight_IsbL-0005_RLatLon0.09_PT016H.grib2 2026-04-27 08:44 313K
20260427T06Z_MSC_RDPS_GeopotentialHeight_IsbL-0010_RLatLon0.09_PT016H.grib2 2026-04-27 08:44 344K
20260427T06Z_MSC_RDPS_GeopotentialHeight_IsbL-0020_RLatLon0.09_PT016H.grib2 2026-04-27 08:44 309K
20260427T06Z_MSC_RDPS_GeopotentialHeight_IsbL-0030_RLatLon0.09_PT016H.grib2 2026-04-27 08:44 311K
20260427T06Z_MSC_RDPS_GeopotentialHeight_IsbL-0050_RLatLon0.09_PT016H.grib2 2026-04-27 08:44 312K
20260427T06Z_MSC_RDPS_GeopotentialHeight_IsbL-0100_RLatLon0.09_PT016H.grib2 2026-04-27 08:44 291K
20260427T06Z_MSC_RDPS_GeopotentialHeight_IsbL-0150_RLatLon0.09_PT016H.grib2 2026-04-27 08:44 232K
20260427T06Z_MSC_RDPS_GeopotentialHeight_IsbL-0175_RLatLon0.09_PT016H.grib2 2026-04-27 08:44 235K
20260427T06Z_MSC_RDPS_GeopotentialHeight_IsbL-0200_RLatLon0.09_PT016H.grib2 2026-04-27 08:44 268K
20260427T06Z_MSC_RDPS_GeopotentialHeight_IsbL-0225_RLatLon0.09_PT016H.grib2 2026-04-27 08:44 271K
20260427T06Z_MSC_RDPS_GeopotentialHeight_IsbL-0250_RLatLon0.09_PT016H.grib2 2026-04-27 08:44 272K
20260427T06Z_MSC_RDPS_GeopotentialHeight_IsbL-0275_RLatLon0.09_PT016H.grib2 2026-04-27 08:44 271K
20260427T06Z_MSC_RDPS_GeopotentialHeight_IsbL-0300_RLatLon0.09_PT016H.grib2 2026-04-27 08:44 240K
20260427T06Z_MSC_RDPS_GeopotentialHeight_IsbL-0350_RLatLon0.09_PT016H.grib2 2026-04-27 08:44 235K
20260427T06Z_MSC_RDPS_GeopotentialHeight_IsbL-0400_RLatLon0.09_PT016H.grib2 2026-04-27 08:44 230K
20260427T06Z_MSC_RDPS_GeopotentialHeight_IsbL-0450_RLatLon0.09_PT016H.grib2 2026-04-27 08:44 299K
20260427T06Z_MSC_RDPS_GeopotentialHeight_IsbL-0500_RLatLon0.09_PT016H.grib2 2026-04-27 08:44 294K
20260427T06Z_MSC_RDPS_GeopotentialHeight_IsbL-0550_RLatLon0.09_PT016H.grib2 2026-04-27 08:44 290K
20260427T06Z_MSC_RDPS_GeopotentialHeight_IsbL-0600_RLatLon0.09_PT016H.grib2 2026-04-27 08:44 286K
20260427T06Z_MSC_RDPS_GeopotentialHeight_IsbL-0650_RLatLon0.09_PT016H.grib2 2026-04-27 08:44 286K
20260427T06Z_MSC_RDPS_GeopotentialHeight_IsbL-0700_RLatLon0.09_PT016H.grib2 2026-04-27 08:44 284K
20260427T06Z_MSC_RDPS_GeopotentialHeight_IsbL-0750_RLatLon0.09_PT016H.grib2 2026-04-27 08:44 257K
20260427T06Z_MSC_RDPS_GeopotentialHeight_IsbL-0800_RLatLon0.09_PT016H.grib2 2026-04-27 08:44 263K
20260427T06Z_MSC_RDPS_GeopotentialHeight_IsbL-0850_RLatLon0.09_PT016H.grib2 2026-04-27 08:44 269K
20260427T06Z_MSC_RDPS_GeopotentialHeight_IsbL-0875_RLatLon0.09_PT016H.grib2 2026-04-27 08:44 359K
20260427T06Z_MSC_RDPS_GeopotentialHeight_IsbL-0900_RLatLon0.09_PT016H.grib2 2026-04-27 08:44 363K
20260427T06Z_MSC_RDPS_GeopotentialHeight_IsbL-0925_RLatLon0.09_PT016H.grib2 2026-04-27 08:44 366K
20260427T06Z_MSC_RDPS_GeopotentialHeight_IsbL-0950_RLatLon0.09_PT016H.grib2 2026-04-27 08:44 369K
20260427T06Z_MSC_RDPS_GeopotentialHeight_IsbL-0970_RLatLon0.09_PT016H.grib2 2026-04-27 08:44 375K
20260427T06Z_MSC_RDPS_GeopotentialHeight_IsbL-0985_RLatLon0.09_PT016H.grib2 2026-04-27 08:44 384K
20260427T06Z_MSC_RDPS_GeopotentialHeight_IsbL-1000_RLatLon0.09_PT016H.grib2 2026-04-27 08:44 396K
20260427T06Z_MSC_RDPS_GeopotentialHeight_IsbL-1015_RLatLon0.09_PT016H.grib2 2026-04-27 08:44 411K
20260427T06Z_MSC_RDPS_Humidex_Sfc_RLatLon0.09_PT016H.grib2 2026-04-27 08:44 2.4M
20260427T06Z_MSC_RDPS_IcePellets-Accum1h_Sfc_RLatLon0.09_PT016H.grib2 2026-04-27 08:44 5.2K
20260427T06Z_MSC_RDPS_IcePellets-Accum_Sfc_RLatLon0.09_PT016H.grib2 2026-04-27 08:44 11K
20260427T06Z_MSC_RDPS_KIndex_Sfc_RLatLon0.09_PT016H.grib2 2026-04-27 08:44 2.4M
20260427T06Z_MSC_RDPS_LatentHeatNetFlux_Sfc_RLatLon0.09_PT016H.grib2 2026-04-27 08:44 298K
20260427T06Z_MSC_RDPS_LiftedIndex-MU-VT_IsbL-0500_RLatLon0.09_PT016H.grib2 2026-04-27 08:44 2.4M
20260427T06Z_MSC_RDPS_NetLongwaveRadiationFlux-Accum_Sfc_RLatLon0.09_PT016H.grib2 2026-04-27 08:44 534K
20260427T06Z_MSC_RDPS_NetShortwaveRadiationFlux-Accum_Sfc_RLatLon0.09_PT016H.grib2 2026-04-27 08:44 594K
20260427T06Z_MSC_RDPS_PlanetaryBoundaryLayerHeight_Sfc_RLatLon0.09_PT016H.grib2 2026-04-27 08:44 1.0M
20260427T06Z_MSC_RDPS_Precip-Accum1h_Sfc_RLatLon0.09_PT016H.grib2 2026-04-27 08:44 1.2M
20260427T06Z_MSC_RDPS_Precip-Accum_Sfc_RLatLon0.09_PT016H.grib2 2026-04-27 08:44 1.7M
20260427T06Z_MSC_RDPS_PrecipRate_Sfc_RLatLon0.09_PT016H.grib2 2026-04-27 08:44 179K
20260427T06Z_MSC_RDPS_PrecipType-Instant_Sfc_RLatLon0.09_PT016H.grib2 2026-04-27 08:44 577K
20260427T06Z_MSC_RDPS_Pressure-Trend3h_Sfc_RLatLon0.09_PT016H.grib2 2026-04-27 08:44 1.2M
20260427T06Z_MSC_RDPS_Pressure_MSL_RLatLon0.09_PT016H.grib2 2026-04-27 08:44 297K
20260427T06Z_MSC_RDPS_Pressure_PVU-1.5_RLatLon0.09_PT016H.grib2 2026-04-27 08:44 2.5M
20260427T06Z_MSC_RDPS_Pressure_PVU-1_RLatLon0.09_PT016H.grib2 2026-04-27 08:44 2.4M
20260427T06Z_MSC_RDPS_Pressure_PVU-2_RLatLon0.09_PT016H.grib2 2026-04-27 08:44 2.4M
20260427T06Z_MSC_RDPS_Pressure_Sfc_RLatLon0.09_PT016H.grib2 2026-04-27 08:44 499K
20260427T06Z_MSC_RDPS_RadiativeTemp_Sfc_RLatLon0.09_PT016H.grib2 2026-04-27 08:44 325K
20260427T06Z_MSC_RDPS_Rain-Accum1h_Sfc_RLatLon0.09_PT016H.grib2 2026-04-27 08:44 616K
20260427T06Z_MSC_RDPS_Rain-Accum_Sfc_RLatLon0.09_PT016H.grib2 2026-04-27 08:44 1.2M
20260427T06Z_MSC_RDPS_RelativeHumidity_AGL-2m_RLatLon0.09_PT016H.grib2 2026-04-27 08:44 1.0M
20260427T06Z_MSC_RDPS_RelativeHumidity_IsbL-0010_RLatLon0.09_PT016H.grib2 2026-04-27 08:44 630K
20260427T06Z_MSC_RDPS_RelativeHumidity_IsbL-0020_RLatLon0.09_PT016H.grib2 2026-04-27 08:44 653K
20260427T06Z_MSC_RDPS_RelativeHumidity_IsbL-0030_RLatLon0.09_PT016H.grib2 2026-04-27 08:44 538K
20260427T06Z_MSC_RDPS_RelativeHumidity_IsbL-0050_RLatLon0.09_PT016H.grib2 2026-04-27 08:44 376K
20260427T06Z_MSC_RDPS_RelativeHumidity_IsbL-0100_RLatLon0.09_PT016H.grib2 2026-04-27 08:44 277K
20260427T06Z_MSC_RDPS_RelativeHumidity_IsbL-0150_RLatLon0.09_PT016H.grib2 2026-04-27 08:44 409K
20260427T06Z_MSC_RDPS_RelativeHumidity_IsbL-0175_RLatLon0.09_PT016H.grib2 2026-04-27 08:44 488K
20260427T06Z_MSC_RDPS_RelativeHumidity_IsbL-0200_RLatLon0.09_PT016H.grib2 2026-04-27 08:44 567K
20260427T06Z_MSC_RDPS_RelativeHumidity_IsbL-0225_RLatLon0.09_PT016H.grib2 2026-04-27 08:44 628K
20260427T06Z_MSC_RDPS_RelativeHumidity_IsbL-0250_RLatLon0.09_PT016H.grib2 2026-04-27 08:44 689K
20260427T06Z_MSC_RDPS_RelativeHumidity_IsbL-0275_RLatLon0.09_PT016H.grib2 2026-04-27 08:44 721K
20260427T06Z_MSC_RDPS_RelativeHumidity_IsbL-0300_RLatLon0.09_PT016H.grib2 2026-04-27 08:44 766K
20260427T06Z_MSC_RDPS_RelativeHumidity_IsbL-0350_RLatLon0.09_PT016H.grib2 2026-04-27 08:44 784K
20260427T06Z_MSC_RDPS_RelativeHumidity_IsbL-0400_RLatLon0.09_PT016H.grib2 2026-04-27 08:44 799K
20260427T06Z_MSC_RDPS_RelativeHumidity_IsbL-0450_RLatLon0.09_PT016H.grib2 2026-04-27 08:44 810K
20260427T06Z_MSC_RDPS_RelativeHumidity_IsbL-0500_RLatLon0.09_PT016H.grib2 2026-04-27 08:44 817K
20260427T06Z_MSC_RDPS_RelativeHumidity_IsbL-0550_RLatLon0.09_PT016H.grib2 2026-04-27 08:44 835K
20260427T06Z_MSC_RDPS_RelativeHumidity_IsbL-0600_RLatLon0.09_PT016H.grib2 2026-04-27 08:44 857K
20260427T06Z_MSC_RDPS_RelativeHumidity_IsbL-0650_RLatLon0.09_PT016H.grib2 2026-04-27 08:44 880K
20260427T06Z_MSC_RDPS_RelativeHumidity_IsbL-0700_RLatLon0.09_PT016H.grib2 2026-04-27 08:44 906K
20260427T06Z_MSC_RDPS_RelativeHumidity_IsbL-0750_RLatLon0.09_PT016H.grib2 2026-04-27 08:44 951K
20260427T06Z_MSC_RDPS_RelativeHumidity_IsbL-0800_RLatLon0.09_PT016H.grib2 2026-04-27 08:44 1.0M
20260427T06Z_MSC_RDPS_RelativeHumidity_IsbL-0850_RLatLon0.09_PT016H.grib2 2026-04-27 08:44 1.1M
20260427T06Z_MSC_RDPS_RelativeHumidity_IsbL-0875_RLatLon0.09_PT016H.grib2 2026-04-27 08:44 1.1M
20260427T06Z_MSC_RDPS_RelativeHumidity_IsbL-0900_RLatLon0.09_PT016H.grib2 2026-04-27 08:44 1.1M
20260427T06Z_MSC_RDPS_RelativeHumidity_IsbL-0925_RLatLon0.09_PT016H.grib2 2026-04-27 08:44 1.1M
20260427T06Z_MSC_RDPS_RelativeHumidity_IsbL-0950_RLatLon0.09_PT016H.grib2 2026-04-27 08:44 1.1M
20260427T06Z_MSC_RDPS_RelativeHumidity_IsbL-0970_RLatLon0.09_PT016H.grib2 2026-04-27 08:44 1.1M
20260427T06Z_MSC_RDPS_RelativeHumidity_IsbL-0985_RLatLon0.09_PT016H.grib2 2026-04-27 08:44 1.0M
20260427T06Z_MSC_RDPS_RelativeHumidity_IsbL-1000_RLatLon0.09_PT016H.grib2 2026-04-27 08:44 1.0M
20260427T06Z_MSC_RDPS_RelativeHumidity_IsbL-1015_RLatLon0.09_PT016H.grib2 2026-04-27 08:44 1.0M
20260427T06Z_MSC_RDPS_Runoff-Accum_Sfc_RLatLon0.09_PT016H.grib2 2026-04-27 08:44 49K
20260427T06Z_MSC_RDPS_SWEATIndex_Sfc_RLatLon0.09_PT016H.grib2 2026-04-27 08:44 2.4M
20260427T06Z_MSC_RDPS_SeeingIndex_EAtm_RLatLon0.09_PT016H.grib2 2026-04-27 08:44 1.0M
20260427T06Z_MSC_RDPS_SensibleHeatNetFlux_Sfc_RLatLon0.09_PT016H.grib2 2026-04-27 08:44 351K
20260427T06Z_MSC_RDPS_ShowalterIndex_IsbL-0500_RLatLon0.09_PT016H.grib2 2026-04-27 08:44 2.6M
20260427T06Z_MSC_RDPS_SkyTransparencyIndex_EAtm_RLatLon0.09_PT016H.grib2 2026-04-27 08:44 722K
20260427T06Z_MSC_RDPS_Snow-Accum1h_Sfc_RLatLon0.09_PT016H.grib2 2026-04-27 08:44 372K
20260427T06Z_MSC_RDPS_Snow-Accum_Sfc_RLatLon0.09_PT016H.grib2 2026-04-27 08:44 694K
20260427T06Z_MSC_RDPS_SnowDensity_Sfc_RLatLon0.09_PT016H.grib2 2026-04-27 08:44 181K
20260427T06Z_MSC_RDPS_SnowDepth_Sfc_RLatLon0.09_PT016H.grib2 2026-04-27 08:44 718K
20260427T06Z_MSC_RDPS_SoilTemp_DBS-0to10cm_RLatLon0.09_PT016H.grib2 2026-04-27 08:44 220K
20260427T06Z_MSC_RDPS_SoilTemp_Sfc_RLatLon0.09_PT016H.grib2 2026-04-27 08:44 286K
20260427T06Z_MSC_RDPS_SoilVolumetricIceContent_Sfc_RLatLon0.09_PT016H.grib2 2026-04-27 08:44 168K
20260427T06Z_MSC_RDPS_SoilVolumetricWaterContent_DBS-0to10cm_RLatLon0.09_PT016H.grib2 2026-04-27 08:44 259K
20260427T06Z_MSC_RDPS_SoilVolumetricWaterContent_DBS-0to1cm_RLatLon0.09_PT016H.grib2 2026-04-27 08:44 334K
20260427T06Z_MSC_RDPS_SpecificHumidity_AGL-120m_RLatLon0.09_PT016H.grib2 2026-04-27 08:44 493K
20260427T06Z_MSC_RDPS_SpecificHumidity_AGL-2m_RLatLon0.09_PT016H.grib2 2026-04-27 08:44 663K
20260427T06Z_MSC_RDPS_SpecificHumidity_AGL-40m_RLatLon0.09_PT016H.grib2 2026-04-27 08:44 498K
20260427T06Z_MSC_RDPS_SpecificHumidity_AGL-80m_RLatLon0.09_PT016H.grib2 2026-04-27 08:44 494K
20260427T06Z_MSC_RDPS_SpecificHumidity_IsbL-0001_RLatLon0.09_PT016H.grib2 2026-04-27 08:44 342K
20260427T06Z_MSC_RDPS_SpecificHumidity_IsbL-0005_RLatLon0.09_PT016H.grib2 2026-04-27 08:44 360K
20260427T06Z_MSC_RDPS_SpecificHumidity_IsbL-0010_RLatLon0.09_PT016H.grib2 2026-04-27 08:44 398K
20260427T06Z_MSC_RDPS_SpecificHumidity_IsbL-0020_RLatLon0.09_PT016H.grib2 2026-04-27 08:44 389K
20260427T06Z_MSC_RDPS_SpecificHumidity_IsbL-0030_RLatLon0.09_PT016H.grib2 2026-04-27 08:44 479K
20260427T06Z_MSC_RDPS_SpecificHumidity_IsbL-0050_RLatLon0.09_PT016H.grib2 2026-04-27 08:44 468K
20260427T06Z_MSC_RDPS_SpecificHumidity_IsbL-0100_RLatLon0.09_PT016H.grib2 2026-04-27 08:44 443K
20260427T06Z_MSC_RDPS_SpecificHumidity_IsbL-0150_RLatLon0.09_PT016H.grib2 2026-04-27 08:44 452K
20260427T06Z_MSC_RDPS_SpecificHumidity_IsbL-0175_RLatLon0.09_PT016H.grib2 2026-04-27 08:44 471K
20260427T06Z_MSC_RDPS_SpecificHumidity_IsbL-0200_RLatLon0.09_PT016H.grib2 2026-04-27 08:44 468K
20260427T06Z_MSC_RDPS_SpecificHumidity_IsbL-0225_RLatLon0.09_PT016H.grib2 2026-04-27 08:44 464K
20260427T06Z_MSC_RDPS_SpecificHumidity_IsbL-0250_RLatLon0.09_PT016H.grib2 2026-04-27 08:44 561K
20260427T06Z_MSC_RDPS_SpecificHumidity_IsbL-0275_RLatLon0.09_PT016H.grib2 2026-04-27 08:44 478K
20260427T06Z_MSC_RDPS_SpecificHumidity_IsbL-0300_RLatLon0.09_PT016H.grib2 2026-04-27 08:44 549K
20260427T06Z_MSC_RDPS_SpecificHumidity_IsbL-0350_RLatLon0.09_PT016H.grib2 2026-04-27 08:44 539K
20260427T06Z_MSC_RDPS_SpecificHumidity_IsbL-0400_RLatLon0.09_PT016H.grib2 2026-04-27 08:44 521K
20260427T06Z_MSC_RDPS_SpecificHumidity_IsbL-0450_RLatLon0.09_PT016H.grib2 2026-04-27 08:44 579K
20260427T06Z_MSC_RDPS_SpecificHumidity_IsbL-0500_RLatLon0.09_PT016H.grib2 2026-04-27 08:44 516K
20260427T06Z_MSC_RDPS_SpecificHumidity_IsbL-0550_RLatLon0.09_PT016H.grib2 2026-04-27 08:44 588K
20260427T06Z_MSC_RDPS_SpecificHumidity_IsbL-0600_RLatLon0.09_PT016H.grib2 2026-04-27 08:44 640K
20260427T06Z_MSC_RDPS_SpecificHumidity_IsbL-0650_RLatLon0.09_PT016H.grib2 2026-04-27 08:44 558K
20260427T06Z_MSC_RDPS_SpecificHumidity_IsbL-0700_RLatLon0.09_PT016H.grib2 2026-04-27 08:44 605K
20260427T06Z_MSC_RDPS_SpecificHumidity_IsbL-0750_RLatLon0.09_PT016H.grib2 2026-04-27 08:44 664K
20260427T06Z_MSC_RDPS_SpecificHumidity_IsbL-0800_RLatLon0.09_PT016H.grib2 2026-04-27 08:44 747K
20260427T06Z_MSC_RDPS_SpecificHumidity_IsbL-0850_RLatLon0.09_PT016H.grib2 2026-04-27 08:44 679K
20260427T06Z_MSC_RDPS_SpecificHumidity_IsbL-0875_RLatLon0.09_PT016H.grib2 2026-04-27 08:44 700K
20260427T06Z_MSC_RDPS_SpecificHumidity_IsbL-0900_RLatLon0.09_PT016H.grib2 2026-04-27 08:44 708K
20260427T06Z_MSC_RDPS_SpecificHumidity_IsbL-0925_RLatLon0.09_PT016H.grib2 2026-04-27 08:44 711K
20260427T06Z_MSC_RDPS_SpecificHumidity_IsbL-0950_RLatLon0.09_PT016H.grib2 2026-04-27 08:44 708K
20260427T06Z_MSC_RDPS_SpecificHumidity_IsbL-0970_RLatLon0.09_PT016H.grib2 2026-04-27 08:44 699K
20260427T06Z_MSC_RDPS_SpecificHumidity_IsbL-0985_RLatLon0.09_PT016H.grib2 2026-04-27 08:44 691K
20260427T06Z_MSC_RDPS_SpecificHumidity_IsbL-1000_RLatLon0.09_PT016H.grib2 2026-04-27 08:44 686K
20260427T06Z_MSC_RDPS_SpecificHumidity_IsbL-1015_RLatLon0.09_PT016H.grib2 2026-04-27 08:44 677K
20260427T06Z_MSC_RDPS_SpecificHumidity_Sfc_RLatLon0.09_PT016H.grib2 2026-04-27 08:44 343K
20260427T06Z_MSC_RDPS_StormRelativeHelicity_EtaL-10000_RLatLon0.09_PT016H.grib2 2026-04-27 08:44 1.0M
20260427T06Z_MSC_RDPS_StormSeverityIndex_EtaL-10000_RLatLon0.09_PT016H.grib2 2026-04-27 08:44 1.2M
20260427T06Z_MSC_RDPS_Thickness_IsbL-0850to0700_RLatLon0.09_PT016H.grib2 2026-04-27 08:44 176K
20260427T06Z_MSC_RDPS_Thickness_IsbL-1000to0500_RLatLon0.09_PT016H.grib2 2026-04-27 08:44 201K
20260427T06Z_MSC_RDPS_Thickness_IsbL-1000to0850_RLatLon0.09_PT016H.grib2 2026-04-27 08:44 187K
20260427T06Z_MSC_RDPS_TotalCloudCover_Sfc_RLatLon0.09_PT016H.grib2 2026-04-27 08:44 653K
20260427T06Z_MSC_RDPS_TotalTotalsIndex_Sfc_RLatLon0.09_PT016H.grib2 2026-04-27 08:44 2.4M
20260427T06Z_MSC_RDPS_UVIndex-ClearSky_Sfc_RLatLon0.09_PT016H.grib2 2026-04-27 08:44 175K
20260427T06Z_MSC_RDPS_UVIndex_Sfc_RLatLon0.09_PT016H.grib2 2026-04-27 08:44 405K
20260427T06Z_MSC_RDPS_UpwardLongwaveRadiationFlux_NTAtm_RLatLon0.09_PT016H.grib2 2026-04-27 08:44 387K
20260427T06Z_MSC_RDPS_UpwardShortwaveRadiationFlux_NTAtm_RLatLon0.09_PT016H.grib2 2026-04-27 08:44 451K
20260427T06Z_MSC_RDPS_VerticalVelocity_IsbL-0250_RLatLon0.09_PT016H.grib2 2026-04-27 08:44 549K
20260427T06Z_MSC_RDPS_VerticalVelocity_IsbL-0500_RLatLon0.09_PT016H.grib2 2026-04-27 08:44 541K
20260427T06Z_MSC_RDPS_VerticalVelocity_IsbL-0700_RLatLon0.09_PT016H.grib2 2026-04-27 08:44 597K
20260427T06Z_MSC_RDPS_VerticalVelocity_IsbL-0850_RLatLon0.09_PT016H.grib2 2026-04-27 08:44 657K
20260427T06Z_MSC_RDPS_VerticalWindShear_EtaL-6500_RLatLon0.09_PT016H.grib2 2026-04-27 08:44 1.2M
20260427T06Z_MSC_RDPS_WindChill_Sfc_RLatLon0.09_PT016H.grib2 2026-04-27 08:44 1.1M
20260427T06Z_MSC_RDPS_WindDir_AGL-10m_RLatLon0.09_PT016H.grib2 2026-04-27 08:44 958K
20260427T06Z_MSC_RDPS_WindDir_AGL-120m_RLatLon0.09_PT016H.grib2 2026-04-27 08:44 605K
20260427T06Z_MSC_RDPS_WindDir_AGL-40m_RLatLon0.09_PT016H.grib2 2026-04-27 08:44 627K
20260427T06Z_MSC_RDPS_WindDir_AGL-80m_RLatLon0.09_PT016H.grib2 2026-04-27 08:44 614K
20260427T06Z_MSC_RDPS_WindDir_IsbL-0001_RLatLon0.09_PT016H.grib2 2026-04-27 08:44 275K
20260427T06Z_MSC_RDPS_WindDir_IsbL-0005_RLatLon0.09_PT016H.grib2 2026-04-27 08:44 358K
20260427T06Z_MSC_RDPS_WindDir_IsbL-0010_RLatLon0.09_PT016H.grib2 2026-04-27 08:44 392K
20260427T06Z_MSC_RDPS_WindDir_IsbL-0020_RLatLon0.09_PT016H.grib2 2026-04-27 08:44 413K
20260427T06Z_MSC_RDPS_WindDir_IsbL-0030_RLatLon0.09_PT016H.grib2 2026-04-27 08:44 409K
20260427T06Z_MSC_RDPS_WindDir_IsbL-0050_RLatLon0.09_PT016H.grib2 2026-04-27 08:44 421K
20260427T06Z_MSC_RDPS_WindDir_IsbL-0100_RLatLon0.09_PT016H.grib2 2026-04-27 08:44 410K
20260427T06Z_MSC_RDPS_WindDir_IsbL-0150_RLatLon0.09_PT016H.grib2 2026-04-27 08:44 415K
20260427T06Z_MSC_RDPS_WindDir_IsbL-0175_RLatLon0.09_PT016H.grib2 2026-04-27 08:44 437K
20260427T06Z_MSC_RDPS_WindDir_IsbL-0200_RLatLon0.09_PT016H.grib2 2026-04-27 08:44 449K
20260427T06Z_MSC_RDPS_WindDir_IsbL-0225_RLatLon0.09_PT016H.grib2 2026-04-27 08:44 451K
20260427T06Z_MSC_RDPS_WindDir_IsbL-0250_RLatLon0.09_PT016H.grib2 2026-04-27 08:44 450K
20260427T06Z_MSC_RDPS_WindDir_IsbL-0275_RLatLon0.09_PT016H.grib2 2026-04-27 08:44 470K
20260427T06Z_MSC_RDPS_WindDir_IsbL-0300_RLatLon0.09_PT016H.grib2 2026-04-27 08:44 465K
20260427T06Z_MSC_RDPS_WindDir_IsbL-0350_RLatLon0.09_PT016H.grib2 2026-04-27 08:44 490K
20260427T06Z_MSC_RDPS_WindDir_IsbL-0400_RLatLon0.09_PT016H.grib2 2026-04-27 08:44 503K
20260427T06Z_MSC_RDPS_WindDir_IsbL-0450_RLatLon0.09_PT016H.grib2 2026-04-27 08:44 525K
20260427T06Z_MSC_RDPS_WindDir_IsbL-0500_RLatLon0.09_PT016H.grib2 2026-04-27 08:44 541K
20260427T06Z_MSC_RDPS_WindDir_IsbL-0550_RLatLon0.09_PT016H.grib2 2026-04-27 08:44 557K
20260427T06Z_MSC_RDPS_WindDir_IsbL-0600_RLatLon0.09_PT016H.grib2 2026-04-27 08:44 585K
20260427T06Z_MSC_RDPS_WindDir_IsbL-0650_RLatLon0.09_PT016H.grib2 2026-04-27 08:44 624K
20260427T06Z_MSC_RDPS_WindDir_IsbL-0700_RLatLon0.09_PT016H.grib2 2026-04-27 08:44 669K
20260427T06Z_MSC_RDPS_WindDir_IsbL-0750_RLatLon0.09_PT016H.grib2 2026-04-27 08:44 722K
20260427T06Z_MSC_RDPS_WindDir_IsbL-0800_RLatLon0.09_PT016H.grib2 2026-04-27 08:44 794K
20260427T06Z_MSC_RDPS_WindDir_IsbL-0850_RLatLon0.09_PT016H.grib2 2026-04-27 08:44 861K
20260427T06Z_MSC_RDPS_WindDir_IsbL-0875_RLatLon0.09_PT016H.grib2 2026-04-27 08:44 886K
20260427T06Z_MSC_RDPS_WindDir_IsbL-0900_RLatLon0.09_PT016H.grib2 2026-04-27 08:44 904K
20260427T06Z_MSC_RDPS_WindDir_IsbL-0925_RLatLon0.09_PT016H.grib2 2026-04-27 08:44 909K
20260427T06Z_MSC_RDPS_WindDir_IsbL-0950_RLatLon0.09_PT016H.grib2 2026-04-27 08:44 907K
20260427T06Z_MSC_RDPS_WindDir_IsbL-0970_RLatLon0.09_PT016H.grib2 2026-04-27 08:44 911K
20260427T06Z_MSC_RDPS_WindDir_IsbL-0985_RLatLon0.09_PT016H.grib2 2026-04-27 08:44 920K
20260427T06Z_MSC_RDPS_WindDir_IsbL-1000_RLatLon0.09_PT016H.grib2 2026-04-27 08:44 933K
20260427T06Z_MSC_RDPS_WindDir_IsbL-1015_RLatLon0.09_PT016H.grib2 2026-04-27 08:44 950K
20260427T06Z_MSC_RDPS_WindGust-Max_AGL-10m_RLatLon0.09_PT016H.grib2 2026-04-27 08:44 948K
20260427T06Z_MSC_RDPS_WindGust-Min_AGL-10m_RLatLon0.09_PT016H.grib2 2026-04-27 08:44 928K
20260427T06Z_MSC_RDPS_WindGust_AGL-10m_RLatLon0.09_PT016H.grib2 2026-04-27 08:44 937K
20260427T06Z_MSC_RDPS_WindSpeed_AGL-10m_RLatLon0.09_PT016H.grib2 2026-04-27 08:44 843K
20260427T06Z_MSC_RDPS_WindSpeed_AGL-120m_RLatLon0.09_PT016H.grib2 2026-04-27 08:44 545K
20260427T06Z_MSC_RDPS_WindSpeed_AGL-40m_RLatLon0.09_PT016H.grib2 2026-04-27 08:44 552K
20260427T06Z_MSC_RDPS_WindSpeed_AGL-80m_RLatLon0.09_PT016H.grib2 2026-04-27 08:44 547K
20260427T06Z_MSC_RDPS_WindSpeed_IsbL-0001_RLatLon0.09_PT016H.grib2 2026-04-27 08:44 251K
20260427T06Z_MSC_RDPS_WindSpeed_IsbL-0005_RLatLon0.09_PT016H.grib2 2026-04-27 08:44 297K
20260427T06Z_MSC_RDPS_WindSpeed_IsbL-0010_RLatLon0.09_PT016H.grib2 2026-04-27 08:44 311K
20260427T06Z_MSC_RDPS_WindSpeed_IsbL-0020_RLatLon0.09_PT016H.grib2 2026-04-27 08:44 326K
20260427T06Z_MSC_RDPS_WindSpeed_IsbL-0030_RLatLon0.09_PT016H.grib2 2026-04-27 08:44 320K
20260427T06Z_MSC_RDPS_WindSpeed_IsbL-0050_RLatLon0.09_PT016H.grib2 2026-04-27 08:44 353K
20260427T06Z_MSC_RDPS_WindSpeed_IsbL-0100_RLatLon0.09_PT016H.grib2 2026-04-27 08:44 441K
20260427T06Z_MSC_RDPS_WindSpeed_IsbL-0150_RLatLon0.09_PT016H.grib2 2026-04-27 08:44 382K
20260427T06Z_MSC_RDPS_WindSpeed_IsbL-0175_RLatLon0.09_PT016H.grib2 2026-04-27 08:44 412K
20260427T06Z_MSC_RDPS_WindSpeed_IsbL-0200_RLatLon0.09_PT016H.grib2 2026-04-27 08:44 448K
20260427T06Z_MSC_RDPS_WindSpeed_IsbL-0225_RLatLon0.09_PT016H.grib2 2026-04-27 08:44 453K
20260427T06Z_MSC_RDPS_WindSpeed_IsbL-0250_RLatLon0.09_PT016H.grib2 2026-04-27 08:44 455K
20260427T06Z_MSC_RDPS_WindSpeed_IsbL-0275_RLatLon0.09_PT016H.grib2 2026-04-27 08:44 471K
20260427T06Z_MSC_RDPS_WindSpeed_IsbL-0300_RLatLon0.09_PT016H.grib2 2026-04-27 08:44 469K
20260427T06Z_MSC_RDPS_WindSpeed_IsbL-0350_RLatLon0.09_PT016H.grib2 2026-04-27 08:44 477K
20260427T06Z_MSC_RDPS_WindSpeed_IsbL-0400_RLatLon0.09_PT016H.grib2 2026-04-27 08:44 461K
20260427T06Z_MSC_RDPS_WindSpeed_IsbL-0450_RLatLon0.09_PT016H.grib2 2026-04-27 08:44 460K
20260427T06Z_MSC_RDPS_WindSpeed_IsbL-0500_RLatLon0.09_PT016H.grib2 2026-04-27 08:44 460K
20260427T06Z_MSC_RDPS_WindSpeed_IsbL-0550_RLatLon0.09_PT016H.grib2 2026-04-27 08:44 462K
20260427T06Z_MSC_RDPS_WindSpeed_IsbL-0600_RLatLon0.09_PT016H.grib2 2026-04-27 08:44 592K
20260427T06Z_MSC_RDPS_WindSpeed_IsbL-0650_RLatLon0.09_PT016H.grib2 2026-04-27 08:44 614K
20260427T06Z_MSC_RDPS_WindSpeed_IsbL-0700_RLatLon0.09_PT016H.grib2 2026-04-27 08:44 638K
20260427T06Z_MSC_RDPS_WindSpeed_IsbL-0750_RLatLon0.09_PT016H.grib2 2026-04-27 08:44 666K
20260427T06Z_MSC_RDPS_WindSpeed_IsbL-0800_RLatLon0.09_PT016H.grib2 2026-04-27 08:44 758K
20260427T06Z_MSC_RDPS_WindSpeed_IsbL-0850_RLatLon0.09_PT016H.grib2 2026-04-27 08:44 767K
20260427T06Z_MSC_RDPS_WindSpeed_IsbL-0875_RLatLon0.09_PT016H.grib2 2026-04-27 08:44 786K
20260427T06Z_MSC_RDPS_WindSpeed_IsbL-0900_RLatLon0.09_PT016H.grib2 2026-04-27 08:44 801K
20260427T06Z_MSC_RDPS_WindSpeed_IsbL-0925_RLatLon0.09_PT016H.grib2 2026-04-27 08:44 809K
20260427T06Z_MSC_RDPS_WindSpeed_IsbL-0950_RLatLon0.09_PT016H.grib2 2026-04-27 08:44 809K
20260427T06Z_MSC_RDPS_WindSpeed_IsbL-0970_RLatLon0.09_PT016H.grib2 2026-04-27 08:44 858K
20260427T06Z_MSC_RDPS_WindSpeed_IsbL-0985_RLatLon0.09_PT016H.grib2 2026-04-27 08:44 859K
20260427T06Z_MSC_RDPS_WindSpeed_IsbL-1000_RLatLon0.09_PT016H.grib2 2026-04-27 08:44 851K
20260427T06Z_MSC_RDPS_WindSpeed_IsbL-1015_RLatLon0.09_PT016H.grib2 2026-04-27 08:44 844K
20260427T06Z_MSC_RDPS_WindU_AGL-10m_RLatLon0.09_PT016H.grib2 2026-04-27 08:44 436K
20260427T06Z_MSC_RDPS_WindU_AGL-120m_RLatLon0.09_PT016H.grib2 2026-04-27 08:44 417K
20260427T06Z_MSC_RDPS_WindU_AGL-40m_RLatLon0.09_PT016H.grib2 2026-04-27 08:44 539K
20260427T06Z_MSC_RDPS_WindU_AGL-80m_RLatLon0.09_PT016H.grib2 2026-04-27 08:44 419K
20260427T06Z_MSC_RDPS_WindU_IsbL-0001_RLatLon0.09_PT016H.grib2 2026-04-27 08:44 293K
20260427T06Z_MSC_RDPS_WindU_IsbL-0005_RLatLon0.09_PT016H.grib2 2026-04-27 08:44 290K
20260427T06Z_MSC_RDPS_WindU_IsbL-0010_RLatLon0.09_PT016H.grib2 2026-04-27 08:44 300K
20260427T06Z_MSC_RDPS_WindU_IsbL-0020_RLatLon0.09_PT016H.grib2 2026-04-27 08:44 355K
20260427T06Z_MSC_RDPS_WindU_IsbL-0030_RLatLon0.09_PT016H.grib2 2026-04-27 08:44 321K
20260427T06Z_MSC_RDPS_WindU_IsbL-0050_RLatLon0.09_PT016H.grib2 2026-04-27 08:44 381K
20260427T06Z_MSC_RDPS_WindU_IsbL-0100_RLatLon0.09_PT016H.grib2 2026-04-27 08:44 435K
20260427T06Z_MSC_RDPS_WindU_IsbL-0150_RLatLon0.09_PT016H.grib2 2026-04-27 08:44 399K
20260427T06Z_MSC_RDPS_WindU_IsbL-0175_RLatLon0.09_PT016H.grib2 2026-04-27 08:44 425K
20260427T06Z_MSC_RDPS_WindU_IsbL-0200_RLatLon0.09_PT016H.grib2 2026-04-27 08:44 342K
20260427T06Z_MSC_RDPS_WindU_IsbL-0225_RLatLon0.09_PT016H.grib2 2026-04-27 08:44 346K
20260427T06Z_MSC_RDPS_WindU_IsbL-0250_RLatLon0.09_PT016H.grib2 2026-04-27 08:44 445K
20260427T06Z_MSC_RDPS_WindU_IsbL-0275_RLatLon0.09_PT016H.grib2 2026-04-27 08:44 460K
20260427T06Z_MSC_RDPS_WindU_IsbL-0300_RLatLon0.09_PT016H.grib2 2026-04-27 08:44 355K
20260427T06Z_MSC_RDPS_WindU_IsbL-0350_RLatLon0.09_PT016H.grib2 2026-04-27 08:44 362K
20260427T06Z_MSC_RDPS_WindU_IsbL-0400_RLatLon0.09_PT016H.grib2 2026-04-27 08:44 466K
20260427T06Z_MSC_RDPS_WindU_IsbL-0450_RLatLon0.09_PT016H.grib2 2026-04-27 08:44 467K
20260427T06Z_MSC_RDPS_WindU_IsbL-0500_RLatLon0.09_PT016H.grib2 2026-04-27 08:44 467K
20260427T06Z_MSC_RDPS_WindU_IsbL-0550_RLatLon0.09_PT016H.grib2 2026-04-27 08:44 470K
20260427T06Z_MSC_RDPS_WindU_IsbL-0600_RLatLon0.09_PT016H.grib2 2026-04-27 08:44 482K
20260427T06Z_MSC_RDPS_WindU_IsbL-0650_RLatLon0.09_PT016H.grib2 2026-04-27 08:44 499K
20260427T06Z_MSC_RDPS_WindU_IsbL-0700_RLatLon0.09_PT016H.grib2 2026-04-27 08:44 520K
20260427T06Z_MSC_RDPS_WindU_IsbL-0750_RLatLon0.09_PT016H.grib2 2026-04-27 08:44 532K
20260427T06Z_MSC_RDPS_WindU_IsbL-0800_RLatLon0.09_PT016H.grib2 2026-04-27 08:44 586K
20260427T06Z_MSC_RDPS_WindU_IsbL-0850_RLatLon0.09_PT016H.grib2 2026-04-27 08:44 631K
20260427T06Z_MSC_RDPS_WindU_IsbL-0875_RLatLon0.09_PT016H.grib2 2026-04-27 08:44 639K
20260427T06Z_MSC_RDPS_WindU_IsbL-0900_RLatLon0.09_PT016H.grib2 2026-04-27 08:44 650K
20260427T06Z_MSC_RDPS_WindU_IsbL-0925_RLatLon0.09_PT016H.grib2 2026-04-27 08:44 656K
20260427T06Z_MSC_RDPS_WindU_IsbL-0950_RLatLon0.09_PT016H.grib2 2026-04-27 08:44 653K
20260427T06Z_MSC_RDPS_WindU_IsbL-0970_RLatLon0.09_PT016H.grib2 2026-04-27 08:44 653K
20260427T06Z_MSC_RDPS_WindU_IsbL-0985_RLatLon0.09_PT016H.grib2 2026-04-27 08:44 653K
20260427T06Z_MSC_RDPS_WindU_IsbL-1000_RLatLon0.09_PT016H.grib2 2026-04-27 08:44 788K
20260427T06Z_MSC_RDPS_WindU_IsbL-1015_RLatLon0.09_PT016H.grib2 2026-04-27 08:44 785K
20260427T06Z_MSC_RDPS_WindV_AGL-10m_RLatLon0.09_PT016H.grib2 2026-04-27 08:44 433K
20260427T06Z_MSC_RDPS_WindV_AGL-120m_RLatLon0.09_PT016H.grib2 2026-04-27 08:44 415K
20260427T06Z_MSC_RDPS_WindV_AGL-40m_RLatLon0.09_PT016H.grib2 2026-04-27 08:44 419K
20260427T06Z_MSC_RDPS_WindV_AGL-80m_RLatLon0.09_PT016H.grib2 2026-04-27 08:44 417K
20260427T06Z_MSC_RDPS_WindV_IsbL-0001_RLatLon0.09_PT016H.grib2 2026-04-27 08:44 266K
20260427T06Z_MSC_RDPS_WindV_IsbL-0005_RLatLon0.09_PT016H.grib2 2026-04-27 08:44 289K
20260427T06Z_MSC_RDPS_WindV_IsbL-0010_RLatLon0.09_PT016H.grib2 2026-04-27 08:44 300K
20260427T06Z_MSC_RDPS_WindV_IsbL-0020_RLatLon0.09_PT016H.grib2 2026-04-27 08:44 317K
20260427T06Z_MSC_RDPS_WindV_IsbL-0030_RLatLon0.09_PT016H.grib2 2026-04-27 08:44 315K
20260427T06Z_MSC_RDPS_WindV_IsbL-0050_RLatLon0.09_PT016H.grib2 2026-04-27 08:44 346K
20260427T06Z_MSC_RDPS_WindV_IsbL-0100_RLatLon0.09_PT016H.grib2 2026-04-27 08:44 334K
20260427T06Z_MSC_RDPS_WindV_IsbL-0150_RLatLon0.09_PT016H.grib2 2026-04-27 08:44 397K
20260427T06Z_MSC_RDPS_WindV_IsbL-0175_RLatLon0.09_PT016H.grib2 2026-04-27 08:44 425K
20260427T06Z_MSC_RDPS_WindV_IsbL-0200_RLatLon0.09_PT016H.grib2 2026-04-27 08:44 343K
20260427T06Z_MSC_RDPS_WindV_IsbL-0225_RLatLon0.09_PT016H.grib2 2026-04-27 08:44 369K
20260427T06Z_MSC_RDPS_WindV_IsbL-0250_RLatLon0.09_PT016H.grib2 2026-04-27 08:44 369K
20260427T06Z_MSC_RDPS_WindV_IsbL-0275_RLatLon0.09_PT016H.grib2 2026-04-27 08:44 382K
20260427T06Z_MSC_RDPS_WindV_IsbL-0300_RLatLon0.09_PT016H.grib2 2026-04-27 08:44 378K
20260427T06Z_MSC_RDPS_WindV_IsbL-0350_RLatLon0.09_PT016H.grib2 2026-04-27 08:44 358K
20260427T06Z_MSC_RDPS_WindV_IsbL-0400_RLatLon0.09_PT016H.grib2 2026-04-27 08:44 360K
20260427T06Z_MSC_RDPS_WindV_IsbL-0450_RLatLon0.09_PT016H.grib2 2026-04-27 08:44 359K
20260427T06Z_MSC_RDPS_WindV_IsbL-0500_RLatLon0.09_PT016H.grib2 2026-04-27 08:44 462K
20260427T06Z_MSC_RDPS_WindV_IsbL-0550_RLatLon0.09_PT016H.grib2 2026-04-27 08:44 464K
20260427T06Z_MSC_RDPS_WindV_IsbL-0600_RLatLon0.09_PT016H.grib2 2026-04-27 08:44 475K
20260427T06Z_MSC_RDPS_WindV_IsbL-0650_RLatLon0.09_PT016H.grib2 2026-04-27 08:44 494K
20260427T06Z_MSC_RDPS_WindV_IsbL-0700_RLatLon0.09_PT016H.grib2 2026-04-27 08:44 515K
20260427T06Z_MSC_RDPS_WindV_IsbL-0750_RLatLon0.09_PT016H.grib2 2026-04-27 08:44 539K
20260427T06Z_MSC_RDPS_WindV_IsbL-0800_RLatLon0.09_PT016H.grib2 2026-04-27 08:44 579K
20260427T06Z_MSC_RDPS_WindV_IsbL-0850_RLatLon0.09_PT016H.grib2 2026-04-27 08:44 625K
20260427T06Z_MSC_RDPS_WindV_IsbL-0875_RLatLon0.09_PT016H.grib2 2026-04-27 08:44 643K
20260427T06Z_MSC_RDPS_WindV_IsbL-0900_RLatLon0.09_PT016H.grib2 2026-04-27 08:44 654K
20260427T06Z_MSC_RDPS_WindV_IsbL-0925_RLatLon0.09_PT016H.grib2 2026-04-27 08:44 658K
20260427T06Z_MSC_RDPS_WindV_IsbL-0950_RLatLon0.09_PT016H.grib2 2026-04-27 08:44 651K
20260427T06Z_MSC_RDPS_WindV_IsbL-0970_RLatLon0.09_PT016H.grib2 2026-04-27 08:44 650K
20260427T06Z_MSC_RDPS_WindV_IsbL-0985_RLatLon0.09_PT016H.grib2 2026-04-27 08:44 650K
20260427T06Z_MSC_RDPS_WindV_IsbL-1000_RLatLon0.09_PT016H.grib2 2026-04-27 08:44 786K
20260427T06Z_MSC_RDPS_WindV_IsbL-1015_RLatLon0.09_PT016H.grib2 2026-04-27 08:44 780K